Location: St Paul
(33.4390°N, 83.7350°W)
Time: 06:14:27
(UTC-04:00)

COSMO-SKYMED 1 - Pass Details

Date: 06 October 2017
Orbit: 621 x 623 km, 97.9° (Epoch: 22 October)

Event Time Altitude Azimuth Distance (km) Brightness Sun altitude
Rises 19:50:56 0° 6° (N) 2,904 5.9 -8.9°
Reaches altitude 10° 19:53:09 10° 2° (N) 1,994 5.1 -9.3°
Maximum altitude 19:57:23 56° 285° (WNW) 740 3.4 -10.2°
Drops below altitude 10° 20:01:37 10° 207° (SSW) 1,982 5.5 -11.1°
Sets 20:03:49 0° 203° (SSW) 2,884 6.3 -11.6°
